Weather History for Jaffrey, NH

Change the Weather History Date:

Sunday, March 31, 2013

  Actual Average Record
Temperature  
Mean Temperature 36 °F -  
Max Temperature 51 °F 44 °F 82 °F (1998)
Min Temperature 21 °F 26 °F 18 °F (2008)
Degree Days  
Heating Degree Days 29    
Moisture  
Dew Point 25 °F    
Average Humidity 67    
Maximum Humidity 97    
Minimum Humidity 28    
Precipitation  
Precipitation 0.06 in - - ()
Sea Level Pressure  
Sea Level Pressure 30.01 in    
Wind  
Wind Speed 4 mph (South)    
Max Wind Speed 15 mph    
Max Gust Speed 25 mph    
Visibility 9 miles    
Events Rain    
Averages and records for this station are not official NWS values.
T = Trace of Precipitation, MM = Missing Value Source: NWS Daily Summary

Daily Weather History Graph

Daily Weather History Graph

Search for Another Location

Airport:

Trip Planner

Search our weather history database for the weather conditions in past years. The results will help you decide how hot, cold, wet, or windy it might be!

Date:

Astronomy

Mar. 31, 2013 Rise Set
Actual Time 6:31 AM EDT 7:13 PM EDT
Civil Twilight 6:03 AM EDT 7:41 PM EDT
Nautical Twilight 5:29 AM EDT 8:15 PM EDT
Astronomical Twilight 4:54 AM EDT 8:50 PM EDT
Moon No Moon Rise 9:10 AM EDT (3/31)
Length of Visible Light 13h 38m
Length of Day
12h 41m
Waning Gibbous, 78% of the Moon is Illuminated
Mar 31
Waning Gibbous
Apr 3
Last Quarter
Apr 10
New
Apr 18
First Quarter
Apr 25
Full

Hourly Weather History & Observations

Time (EDT) Temp. Windchill Dew Point Humidity Pressure Visibility Wind Dir Wind Speed Gust Speed Precip Events Conditions
12:52 AM 25.0 °F - 21.0 °F 85% 30.14 in 10.0 mi Calm Calm - N/A   Clear
1:52 AM 26.1 °F 21.9 °F 19.9 °F 78% 30.13 in 10.0 mi South 3.5 mph - N/A   Clear
2:52 AM 24.1 °F - 19.9 °F 84% 30.14 in 10.0 mi Calm Calm - N/A   Clear
3:52 AM 23.0 °F - 19.0 °F 85% 30.13 in 10.0 mi Calm Calm - N/A   Clear
4:52 AM 21.9 °F 15.7 °F 19.0 °F 89% 30.13 in 10.0 mi South 4.6 mph - N/A   Clear
5:52 AM 21.0 °F 16.2 °F 18.0 °F 88% 30.13 in 10.0 mi South 3.5 mph - N/A   Clear
6:52 AM 21.0 °F - 18.0 °F 88% 30.13 in 10.0 mi Calm Calm - N/A   Clear
7:52 AM 25.0 °F - 19.9 °F 81% 30.13 in 10.0 mi Calm Calm - N/A   Clear
8:52 AM 34.0 °F - 23.0 °F 64% 30.12 in 10.0 mi Calm Calm - N/A   Clear
9:52 AM 43.0 °F - 21.0 °F 42% 30.10 in 10.0 mi Calm Calm - N/A   Clear
10:52 AM 46.9 °F - 18.0 °F 32% 30.09 in 10.0 mi South 15.0 mph 20.7 mph N/A   Clear
11:52 AM 48.0 °F - 18.0 °F 30% 30.08 in 10.0 mi South 10.4 mph 19.6 mph N/A   Clear
12:52 PM 50.0 °F - 18.0 °F 28% 30.05 in 10.0 mi SSW 13.8 mph 25.3 mph N/A   Clear
1:52 PM 50.0 °F - 19.0 °F 29% 30.02 in 10.0 mi SSW 12.7 mph - N/A   Clear
2:52 PM 51.1 °F - 19.9 °F 29% 29.99 in 10.0 mi SW 8.1 mph 16.1 mph N/A   Clear
3:52 PM 51.1 °F - 21.0 °F 31% 29.96 in 10.0 mi South 11.5 mph - N/A   Clear
4:52 PM 50.0 °F - 21.0 °F 32% 29.95 in 10.0 mi SSE 11.5 mph 21.9 mph N/A   Clear
5:52 PM 48.0 °F - 21.0 °F 34% 29.94 in 10.0 mi South 10.4 mph - N/A   Mostly Cloudy
6:52 PM 46.0 °F 41.4 °F 28.0 °F 50% 29.95 in 10.0 mi SSW 9.2 mph 21.9 mph N/A   Overcast
7:42 PM 41.0 °F 35.8 °F 33.8 °F 76% 29.90 in 10.0 mi SSW 8.1 mph - 0.00 in Rain Light Rain
7:52 PM 39.9 °F 35.1 °F 34.0 °F 79% 29.95 in 9.0 mi South 6.9 mph - 0.01 in Rain Light Rain
8:25 PM 39.2 °F 35.9 °F 35.6 °F 87% 29.88 in 10.0 mi South 4.6 mph - 0.01 in Rain Light Rain
8:52 PM 37.9 °F - 36.0 °F 93% 29.91 in 10.0 mi Calm Calm - 0.02 in Rain Light Rain
9:52 PM 37.0 °F - 36.0 °F 96% 29.86 in 7.0 mi Calm Calm - 0.00 in   Overcast
10:52 PM 37.0 °F - 36.0 °F 96% 29.80 in 6.0 mi Calm Calm - 0.00 in Rain Light Rain
11:03 PM 37.4 °F - 35.6 °F 93% 29.76 in 5.0 mi Calm Calm - N/A   Overcast
11:52 PM 37.9 °F 35.5 °F 37.0 °F 97% 29.77 in 4.0 mi Variable 3.5 mph - 0.03 in Rain Light Rain